Location: Dreilärchen
(47.9312°N, 8.6113°E)
Time: 23:00:11
(UTC+00:00)

Cosmos 332 Rocket - Pass Details

Date: 26 May 2022
Orbit: 681 x 703 km, 74.0° (Epoch: 02 July)

Event Time Altitude Azimuth Distance (km) Brightness Sun altitude
Exits shadow 00:28:27 36° 162° (SSE) 1,074 4.3 -19.4°
Maximum altitude 00:30:03 53° 107° (ESE) 837 4.1 -19.3°
Drops below altitude 10° 00:34:42 10° 31° (NNE) 2,133 7.5 -19.1°
Sets 00:37:03 0° 27° (NNE) 3,053 8.7 -19.0°
